User: anonymous   Login
Location: Balaclava NSW 2575, Australia
(34.4510°S, 150.4953°E)
Time: 06:35:03
(UTC+10:00)
Language:

A-11 Canister half - Orbit

View from above orbital plane
View from above orbital plane
View from above satellite
View from above satellite

Ground track
Ground track

The orbit data is extracted from the following two-line orbital elements,

1 00053U 60009E   21163.58470395 -.00000093  00000-0 -68433-4 0  9999
2 00053  47.2748 228.3962 0096667  65.8837 295.2027 12.17254218712432
Epoch (UTC): 12 June 2021 14:01:58
Eccentricity: 0.0096667
inclination: 47.2748°
perigee height: 1527 km
apogee height: 1681 km
right ascension of ascending node: 228.3962°
argument of perigee: 65.8837°
revolutions per day: 12.17254218
mean anomaly at epoch: 295.2027°
orbit number at epoch: 71243

The dashed part of the orbit path shows where the satellite is in the earth's shadow,  

DLR